CZ-4B DEB, 36290

Orbit data source: Space-Track

CZ-4B DEB, 36290 is space debris in SSO originally from a launch on Sat, 25 Oct 2008 UTC launched from the Taiyaun Space Center, China (TSC). Debris objects in space refer to the collection of defunct objects orbiting the Earth. Examples of debris include non-operational satellites, rocket bodies, and fragments generated from explosions, collisions, or faulty payload assembly.

Loading next visibility...
Identifier
36290, 2008-053L
Orbit
SSO
Country
Flag of CNCN / PRC
Related business
Manufacturer
DFH
Mission
Spacecraft
Bus & Motor
Unknown
Mass
Unknown
Launch date (UTC)
2008-10-25 (18 years ago)
Launch vehicle
Unknown
Launch site
Taiyaun Space Center, China (TSC)
Object type
Payload
Rocket body
Debris
Shape & HBR
Unknown shape, 0.1 m
Radar Cross Section
Small (<0.1 m²)

Expand to show TLE details & history
Last TLE update: 5 days ago

TLE from 5 days ago
0 CZ-4B DEB
1 36290U 08053L   26168.88219321  .00002091  00000-0  13181-3 0  9992
2 36290  97.7795 190.1133 0007549 255.6995 104.3396 15.10272710729369
Epoch: 2026-06-17T21:10Z
TLE epoch observation values (Epoch: 2026-06-17T21:10:21.493Z)
Latitude
0.00001°
Longitude
-33.60976°
Altitude
539.73 km
Speed
7.592 km/s
True Right ascension
12h 40m 27s
True Declination
0° 00' 00"
Sunlit
Object was in daylight at epoch
Visualization orbit readout
Latitude
Unknown
Longitude
Unknown
Altitude
Unknown
Speed
Unknown
Apparent Right ascension
Unknown
Apparent Declination
Unknown
Sunlit
N/A
Visualization observer readout
Local Sidereal Time
23:08:30
Azimuth
Unknown
Elevation
Unknown
Doppler factor
Unknown
Orbital elements
Apogee altitude
537.579 km
Perigee altitude
527.146 km
Semi-major axis
6,910.5 km
Eccentricity
0.00075
Inclination
97.7795°
RAAN
190.1133°
Arg. of periapsis
255.6995°
True anomaly
104.42339°
Mean anomaly
104.3396°
Eccentric anomaly
104.3815°
Mean motion
3.77815 °/min
Orbital period
95.28 mins
BSTAR
0.00013181
Loading maneuver chart data...
Computing Atmospheric mass density...
Loading historical data...
Loading historical data...
Loading historical data...
Loading historical data...
Loading historical data...
Loading historical data...
Loading historical data...

Documentation

Showing up to 5 results
|